Location: Academy at Carrie F Thomas
(32.8490°N, 97.2053°W)
Time: 10:11:49
(UTC+00:00)

Meteor 1-25 Rocket - Pass Details

Date: 10 July 2022
Orbit: 835 x 892 km, 81.2° (Epoch: 14 August)

Event Time Altitude Azimuth Distance (km) Brightness Sun altitude
Exits shadow 07:53:18 42° 87° (E) 1,251 5.1 -31.8°
Drops below altitude 10° 07:58:32 10° 24° (NNE) 2,554 7.6 -31.4°
Sets 08:01:05 0° 17° (NNE) 3,491 8.5 -31.2°
